Lincoln Laboratory Near-Earth Asteroid Research project
軌道要素
Improved parabolic orbital elements by K. Muraoka,
from 81 observations 2000 Apr. 26 to May 13, m.e. = +/- 0".75.
T = 2000 Jan. 28.4583 TT
Peri. = 78.7098
Node = 356.4377 (2000.0)
Incl. = 118.2401
q = 3.635720 AU
e = 1.0
星図
光度変化
m1 = 9.5 + 5 logΔ + 10.0 log r
軌道要素は村岡健治氏の計算によるものです。
星図は StellaNavigator Ver.2.0 for Windows
(アストロアーツ
編著 / アスキー出版局刊) で作成したものです。
光度グラフはComet for
Windowsで作成したものです。
Copyright(C) Seiichi Yoshida (comet@aerith.net). All rights reserved.